Uncategorized

2021 Ratings: Mel Hall

How Are Speed Ratings Calculated?!

Girls Adjustment: +22
Boys Adjustment: +19

PRIMETIME PERFORMERS

Sophie Endrud, Detroit Country Day: Their coach came into the store the other day and I remarked that Sophie always steps up at the end of the year. Just as last season, Sophie is running about a minute faster than she was in the heart of the season. Last year, that resulted in a regional runner up and a podium spot at MIS.

Carter McIlroy, Whitehall: He’s had quite the junior year. As a sophomore and freshman, he primarily ran in the 18’s and early in the season, looked like he’d repeat that. But a 17:57 at Ottawa Hills became a 17:25 which became sub-17 last week.

GradeNameTimeTeamRating
9Jessica Jazwinski18:23.0Hart145.0
12Audrianna Enns18:56.8Hart133.7
11Lily Parker19:21.6Spring Lake125.5
12Leanne Krombeen19:40.0Grandville Calvin Christian119.3
11Sophie Endrud19:40.1Detroit Country Day119.3
12Gabriella Wingard19:56.1North Muskegon114.0
10Bea Reeser19:59.3Spring Lake112.9
9Lexie Ruffing20:02.9Spring Lake111.7
10Jayden Turner20:10.7Grand Rapids Kenowa hills109.1
9Valerie Pollock20:20.5Fruitport105.8
11Jonathah Bouwman20:29.8Grandville Calvin Christian102.7
11Erika Posthumus20:38.3Grand Rapids Kenowa hills99.9
9Lexie Beth Nienhuis20:39.6Hart99.5
12Lauren VanderLaan20:49.4Hart96.2
12Hayli Fagan20:51.0Whitehall95.7
11Carolyn Bennett21:00.1North Muskegon92.6
12Makaela Schmidt21:03.0Spring Lake91.7
9Brooklyn Verplank21:08.4Spring Lake89.9
10Katie Riemersma21:12.9Spring Lake88.4
11Cienna Billingsley21:14.2Muskegon Mona Shores87.9
10Lauren Lee21:21.5Fruitport85.5
11Ashley Davis21:23.4Muskegon Mona Shores84.9
10Raegan Ruel21:28.1Muskegon Oakridge83.3
12Jennifer Judge21:29.1Spring Lake83.0
12Emberlynn DeVries21:38.1Grandville Calvin Christian80.0
11Ariana Treat21:41.4Whitehall78.9
9Nell Stover21:43.5Detroit Country Day78.2
10Gabby Doucette21:47.9Grand Rapids Kenowa hills76.7
11Allison Postema21:48.9Grand Rapids Kenowa hills76.4
9Corina Mitteer21:54.8Whitehall74.4
12Isabella Padula21:56.3Spring Lake73.9
10Lauren Jousma22:01.5Grandville Calvin Christian72.2
12Neva Hundt22:01.6Whitehall72.1
11Abigail Pretty22:06.6Hart70.5
9Evelyn Vandlen22:12.7Spring Lake68.4
12Sierra Vanderwier22:18.8Fruitport66.4
9Lauren Pretty22:23.9Hart64.7
10Abbie Buteyn22:24.1Grandville Calvin Christian64.6
9Adalyn Britton22:25.8Whitehall64.1
12Morgan Marvin22:31.1Hart62.3
11Allison Tate22:35.2Whitehall60.9
10Nora Boufford22:35.8Spring Lake60.7
10Lilly Weesies22:38.1Grandville Calvin Christian60.0
10Cara Morse22:39.4Muskegon Oakridge59.5
12Anna Stempky22:41.8Spring Lake58.7
11Savanna Owens22:45.5Hart57.5
9Brooklyn Carter22:45.6Hart57.5
11Alisa Westerling22:56.5Allendale53.8
10Maya Noren22:57.6Spring Lake53.5
9Lydia Recor22:58.2Spring Lake53.3
10Ellie Miller22:59.0Spring Lake53.0
9Bethany Zimmerman22:59.9Spring Lake52.7
11Adara DeWolf23:02.6Muskegon Oakridge51.8
12Gina VanderKodde23:04.7Hart51.1
9Addison Hartley23:11.0Detroit Country Day49.0
11Madison Parmley23:14.0Whitehall48.0
10Abbie Wiegers23:18.1North Muskegon46.6
12Kaitlyn Yonker23:19.8Fruitport46.1
12Eryn Bouwhuis23:24.8Spring Lake44.4
9Diamond Madison23:28.2Muskegon Mona Shores43.3
9Harriet Kidder23:29.5Hart42.8
11Giselle Cossey23:29.5Spring Lake42.8
12Clair Czadzeck23:38.9Spring Lake39.7
11Chloe Holter23:39.8Detroit Country Day39.4
9Naomi Force23:43.6Spring Lake38.1
11Taylor Talcott23:45.8Allendale37.4
10Emily Bilen23:45.9Detroit Country Day37.4
11Delaney Brown23:49.4Allendale36.2
9Lilly Hopkins23:55.1Hart34.3
11Sabrina Warner23:57.0Detroit Country Day33.7
9Marissa Maycroft23:57.4Allendale33.5
9Ada Feasby23:57.5Spring Lake33.5
11Gloria Gaston24:01.9Grand Rapids Kenowa hills32.0
11Taylor Hubbs24:03.7Allendale31.5
9Lola Bryce24:07.9Grandville Calvin Christian30.0
12Kayla Purvis24:09.1Spring Lake29.6
12Shayla Dykhouse24:13.4Grand Rapids Kenowa hills28.2
11Emily Veldkamp24:15.1Allendale27.6
11Paige Dionne24:15.7Allendale27.5
12Kamdyn Burns24:21.2Spring Lake25.6
9Ayla Meier24:22.3Holland Black River25.2
12Kaiya Theune24:26.7Spring Lake23.8
10Ava Morin24:28.8Muskegon Mona Shores23.1
11Kelly VanderKodde24:30.7Hart22.4
10Jaidyn Elam24:34.6Detroit Country Day21.1
10Milla Hanks24:37.0Muskegon Oakridge20.3
12Peyton Parsons24:37.6Spring Lake20.1
10Nora Ballard24:40.0Holland Black River19.3
11Leah Elliott24:47.2Grandville Calvin Christian16.9
9Evangeline Greenwald24:52.9Detroit Country Day15.0
11Han Zhang24:53.0Detroit Country Day15.0
9Lucy Alcorn25:00.3Allendale12.6
12Lizzy Koratich25:01.3Spring Lake12.2
12Tia Sutton25:06.9Muskegon Mona Shores10.4
11Catherine Vandergr…25:08.1Spring Lake10.0
10Leah Armstrong25:12.5Grand Rapids Kenowa hills8.5
11Abby Tew25:27.9Allendale3.4
10Leah Cowling25:30.3Allendale2.6
12Jessana Sorto-Gava…25:32.6Muskegon Mona Shores1.8
9Lucy Herpolsheimer25:37.8Grand Rapids Kenowa hills0.1

GradeNameTimeTeamRating
11Clayton Ackley16:41.7Hart179.8
11Austin O’brien16:42.6Grand Rapids Kenowa hills179.5
10Cole Visser16:44.3Jenison178.9
9Seth Conner16:45.0Jenison178.7
12Dan Kehoe16:54.3Grandville Calvin Christian175.6
11Andre Richmond16:57.0Whitehall174.7
11Carter McIlroy17:02.3Whitehall172.9
12Cameron Moore17:08.4Allendale170.9
12Riley Buys17:12.3Whitehall169.6
12Carter Phillips17:14.4Spring Lake168.9
12Noah Bosley17:15.0Hart168.7
11Ben Yu17:15.9Detroit Country Day168.4
12Sam Davidson17:16.2Spring Lake168.3
11Jude Meldrum-Roy17:22.9North Muskegon166.1
11Brendan Wangler17:23.4Jenison165.9
12Logan Manion17:24.8Grandville Calvin Christian165.4
10Justin Clement17:25.2Jenison165.3
11Ethan Smith17:26.3Jenison164.9
9Mason Lucas17:28.7Jenison164.1
12Nolan Meier17:29.1Holland Black River164.0
11Wyatt Dean17:30.2Hart163.6
11Austin Winkle17:43.1Jenison159.3
9Max Stitt17:44.5Hart158.8
11Ethan Grevengoed17:46.0Spring Lake158.3
9Peyton Ruel17:50.4Muskegon Oakridge156.9
9Parker Tiethof17:50.8Allendale156.7
10Ethan Horan17:57.7Fruitport154.4
10Will Parsekian17:59.5Muskegon Mona Shores153.8
12Max Nienhuis18:00.4Hart153.5
11Will Marth18:00.5Jenison153.5
12Maxwell Remondino18:02.8Muskegon Oakridge152.7
11Roger Hernandez18:05.8Holland Black River151.7
11Johnathon McMullin18:09.0Fruitport150.7
11Seth Ackley18:10.9Hart150.0
12Caleb Ewald18:11.8Holland Black River149.7
12Connor Lodholtz18:12.4Fruitport149.5
11Samuel Rysko18:12.6Jenison149.5
10Evan Atkinson-miller18:13.0North Muskegon149.3
10Lucas Ruffing18:14.2Spring Lake148.9
9Andrew Wangler18:20.8Jenison146.7
10Max Springer18:21.0Allendale146.7
12Zeke Dykstra18:21.4Grand Rapids Kenowa hills146.5
9Parker Strelecki18:22.0Jenison146.3
12Michael Sanders18:22.5Detroit Country Day146.2
9Vincent Pollock18:22.5Fruitport146.2
9Matthew Schwartz18:23.1Jenison146.0
12Nick Penrice18:24.2Spring Lake145.6
11Parker Maciejewski18:26.5North Muskegon144.8
11Josef Bromley18:27.3Hart144.6
11Ben Wertz18:28.9Grandville Calvin Christian144.0
10Trevor Dornbos18:29.5Grandville Calvin Christian143.8
10Grayson Carpenter18:32.2Spring Lake142.9
12Jaxon Deneen18:32.7Fruitport142.8
10Levi Glynn18:33.6Fruitport142.5
12Kreegan Deverney18:36.5Spring Lake141.5
12Aidan Cook18:38.7Muskegon Mona Shores140.8
10Easton Vander Zwaag18:40.3Hart140.3
12Matthew Koeman18:41.8Holland Black River139.7
9Dominic Otto18:42.5Jenison139.5
9Nathan Koches18:45.4Spring Lake138.5
11Alexander Page18:48.0Grand Rapids Kenowa hills137.7
12Noah Miller18:50.6Jenison136.8
9Stewart Waters18:54.1Whitehall135.7
9Nathan Chapin19:00.5Jenison133.5
9Henry Jasper19:04.5Grand Rapids Kenowa hills132.2
10Alex Wilber19:05.0Fruitport132.0
12Ryan Rymal19:05.3Spring Lake131.9
11Austin Barding19:06.3Spring Lake131.6
11Micah Witham19:07.6Whitehall131.1
11Charlie Dolan19:13.4Detroit Country Day129.2
9CJ Bennett19:14.3North Muskegon128.9
11Ben Aaron19:16.1Detroit Country Day128.3
9Weston Carpenter19:17.8Spring Lake127.7
10Ben Vruggink19:21.7Spring Lake126.4
12Jack Davis19:21.8Holland Black River126.4
9Avery Guikema19:23.3Hart125.9
9Keyontae Montes19:25.8Allendale125.1
12Jacob Piper19:26.4Fruitport124.9
9Jack Baltes19:26.9Jenison124.7
9Kai Miller19:26.9Hart124.7
9Andrew Boeringa19:30.9Whitehall123.4
12Andre-Ross Gennette19:31.0Spring Lake123.3
10Nicholas Kline19:31.6Grand Rapids Kenowa hills123.1
10Mason Stafford19:33.4Muskegon Mona Shores122.5
11Tanner Guczwa19:40.2Spring Lake120.3
9Benjamin Slagter19:45.7Jenison118.4
12Alex Chang19:49.8Detroit Country Day117.1
10Dominik Lamberts19:56.1Jenison115.0
10James Thorpe19:57.3Jenison114.6
10Bryce Baumgardner19:59.5Fruitport113.8
9Owen Stimer20:13.7Holland Black River109.1
12Brandon Vanderzanden20:14.1Hart109.0
9Zachary Hyatt20:14.4Whitehall108.9
9Jacob Hopkins20:16.6Detroit Country Day108.1
11Theodore Conrad20:23.0Muskegon Mona Shores106.0
9Ethan Henry20:24.1Jenison105.6
10Austin Zielinski20:31.3Grandville Calvin Christian103.2
9Jacob Marth20:32.3Jenison102.9
12Quinten Burlew20:32.4Jenison102.9
9Ethan Schaner20:32.8Hart102.7
10Matthias Hams20:33.8Whitehall102.4
9Isaac Primm20:36.3Spring Lake101.6
11Avery Jura20:36.8Whitehall101.4
9Carter Charnley20:39.4Spring Lake100.5
10Garrison Klinge20:45.2Muskegon Oakridge98.6
12Justin Smith20:48.4Muskegon Oakridge97.5
11Adil Bahrainwala20:51.5Detroit Country Day96.5
12Zach Dole20:53.2Grandville Calvin Christian95.9
9Micah Derks20:54.6Jenison95.5
10Blake Armstrong20:55.5Muskegon Oakridge95.2
11David Utzinger21:03.4Muskegon Oakridge92.5
11Victor Wu21:04.7Muskegon Mona Shores92.1
12Nick Heinrich21:05.5Grand Rapids Kenowa hills91.8
11Logan Tyson21:07.6North Muskegon91.2
10William Landero21:07.7Grand Rapids Kenowa hills91.1
11Will Schueller21:07.8Detroit Country Day91.1
10Braden Dalm21:11.3North Muskegon89.9
11Harley Bentley21:11.8Grand Rapids Kenowa hills89.7
10Jacob Vandervelde21:12.1North Muskegon89.6
11Eli Mulder21:13.3Grandville Calvin Christian89.2
11Aidden Gentz21:17.3Grand Rapids Kenowa hills87.9
10Luke Piersma21:32.8Grandville Calvin Christian82.7
12Peter Berdo21:39.2Grand Rapids Kenowa hills80.6
9Garrett Abel21:41.3Spring Lake79.9
11Brian Calderon-Ortiz21:41.7Grand Rapids Kenowa hills79.8
12Quentin O’Donnell21:48.6Spring Lake77.5
10Lincoln Fox21:53.0Grand Rapids Kenowa hills76.0
9Navade Haq21:53.5Detroit Country Day75.8
12Jude Fetterley22:16.7Spring Lake68.1
10Zane Baron22:23.5Muskegon Oakridge65.8
12John Riddering22:41.8Grandville Calvin Christian59.7
11Richard Dragivich22:54.5Jenison55.5
9Jack Pummill23:02.2Spring Lake52.9
12Jacob Melamed23:06.7Spring Lake51.4
9Lucas Bronson23:08.3Allendale50.9
11Evan Brooke23:28.8Grand Rapids Kenowa hills44.1
10Eli Moorhouse23:31.7Allendale43.1
10Chevy Vanderlaan24:03.9Spring Lake32.4
9Landon Helmer24:18.1Muskegon Mona Shores27.6
9Chase Stockman24:23.1North Muskegon26.0
10Lucas DeRyke25:07.8Allendale11.1
11Bryce Hallberg25:32.8Spring Lake2.7

Leave a Reply

Fill in your details below or click an icon to log in:

WordPress.com Logo

You are commenting using your WordPress.com account. Log Out /  Change )

Google photo

You are commenting using your Google account. Log Out /  Change )

Twitter picture

You are commenting using your Twitter account. Log Out /  Change )

Facebook photo

You are commenting using your Facebook account. Log Out /  Change )

Connecting to %s